Weather History for Volkel, Netherlands

Change the Weather History Date:

Saturday, February 16, 2013

  Actual Average Record
Temperature  
Mean Temperature 42 °F -  
Max Temperature 46 °F 46 °F 53 °F (1998)
Min Temperature 37 °F 34 °F 23 °F (2003)
Degree Days  
Heating Degree Days 24    
Moisture  
Dew Point 39 °F    
Average Humidity 96    
Maximum Humidity 100    
Minimum Humidity 81    
Precipitation  
Precipitation 0.00 in - - ()
Sea Level Pressure  
Sea Level Pressure 30.21 in    
Wind  
Wind Speed 4 mph ()    
Max Wind Speed 6 mph    
Max Gust Speed -    
Visibility 3.1 miles    
Events Rain    
Averages and records for this station are not official NWS values.
T = Trace of Precipitation, MM = Missing Value Source: Averaged Metar Reports

Daily Weather History Graph

Daily Weather History Graph

Search for Another Location

Airport:

Trip Planner

Search our weather history database for the weather conditions in past years. The results will help you decide how hot, cold, wet, or windy it might be!

Date:

Astronomy

Feb. 16, 2013 Rise Set
Actual Time 7:49 AM CET 5:54 PM CET
Civil Twilight 7:14 AM CET 6:28 PM CET
Nautical Twilight 6:35 AM CET 7:07 PM CET
Astronomical Twilight 5:56 AM CET 7:46 PM CET
Moon 10:01 AM CET (2/16) 12:26 AM CET (2/16)
Length of Visible Light 11h 13m
Length of Day
10h 04m
Waxing Crescent, 37% of the Moon is Illuminated
Feb 16
Waxing Crescent
Feb 17
First Quarter
Feb 25
Full
Mar 4
Last Quarter
Mar 11
New

Hourly Weather History & Observations

Time (CET) Temp. Windchill Dew Point Humidity Pressure Visibility Wind Dir Wind Speed Gust Speed Precip Events Conditions
12:04 AM 37.4 °F 32.8 °F 37.4 °F 100% 30.15 in - SW 5.8 mph - N/A   Overcast
12:25 AM 37.4 °F 33.8 °F 37.4 °F 100% 30.15 in - WSW 4.6 mph - N/A   Overcast
12:55 AM 37.4 °F 32.8 °F 37.4 °F 100% 30.15 in - SW 5.8 mph - N/A   Overcast
1:25 AM 37.4 °F 32.8 °F 37.4 °F 100% 30.15 in 1.5 mi WSW 5.8 mph - N/A   Overcast
1:46 AM 37.4 °F 32.8 °F 37.4 °F 100% 30.18 in 1.4 mi SW 5.8 mph - N/A   Overcast
1:50 AM 37.4 °F 32.8 °F 37.4 °F 100% 30.18 in 1.4 mi SW 5.8 mph - N/A   Overcast
1:55 AM 37.4 °F 32.8 °F 37.4 °F 100% 30.18 in 1.4 mi WSW 5.8 mph - N/A   Overcast
2:25 AM 37.4 °F 33.8 °F 37.4 °F 100% 30.18 in 1.2 mi WSW 4.6 mph - N/A   Overcast
2:43 AM 37.4 °F 33.8 °F 37.4 °F 100% 30.18 in 0.9 mi WSW 4.6 mph - N/A   Overcast
2:47 AM 37.4 °F 33.8 °F 37.4 °F 100% 30.18 in 1.1 mi WSW 4.6 mph - N/A   Overcast
2:55 AM 37.4 °F 33.8 °F 37.4 °F 100% 30.18 in 1.2 mi WSW 4.6 mph - N/A   Overcast
3:02 AM 37.4 °F 33.8 °F 37.4 °F 100% 30.18 in 1.6 mi WSW 4.6 mph - N/A   Overcast
3:06 AM 37.4 °F 33.8 °F 37.4 °F 100% 30.18 in 1.6 mi WSW 4.6 mph - N/A   Overcast
3:19 AM 37.4 °F 33.8 °F 37.4 °F 100% 30.18 in 1.2 mi WSW 4.6 mph - N/A   Overcast
3:25 AM 37.4 °F 33.8 °F 37.4 °F 100% 30.18 in 1.2 mi WSW 4.6 mph - N/A   Overcast
3:43 AM 37.4 °F 32.8 °F 37.4 °F 100% 30.18 in 1.4 mi WSW 5.8 mph - N/A   Overcast
3:47 AM 37.4 °F 33.8 °F 37.4 °F 100% 30.18 in 1.4 mi WSW 4.6 mph - N/A   Overcast
3:55 AM 37.4 °F 33.8 °F 37.4 °F 100% 30.18 in 1.3 mi WSW 4.6 mph - N/A   Overcast
4:25 AM 37.4 °F 34.9 °F 37.4 °F 100% 30.18 in 1.4 mi WSW 3.5 mph - N/A   Overcast
4:49 AM 37.4 °F 33.8 °F 37.4 °F 100% 30.18 in 1.5 mi WSW 4.6 mph - N/A   Mostly Cloudy
4:55 AM 37.4 °F 33.8 °F 37.4 °F 100% 30.18 in 1.5 mi SW 4.6 mph - N/A   Mostly Cloudy
5:25 AM 37.4 °F 34.9 °F 37.4 °F 100% 30.18 in 1.5 mi WSW 3.5 mph - N/A   Overcast
5:39 AM 37.4 °F 34.9 °F 37.4 °F 100% 30.18 in 1.5 mi WSW 3.5 mph - N/A Rain Light Rain
5:43 AM 37.4 °F 34.9 °F 37.4 °F 100% 30.18 in 1.5 mi WSW 3.5 mph - N/A Rain Rain
5:49 AM 37.4 °F 34.9 °F 37.4 °F 100% 30.18 in 1.5 mi WSW 3.5 mph - N/A   Drizzle
5:55 AM 37.4 °F 34.9 °F 37.4 °F 100% 30.18 in 1.4 mi WSW 3.5 mph - N/A   Drizzle
6:25 AM 37.4 °F 33.8 °F 37.4 °F 100% 30.18 in 1.4 mi WSW 4.6 mph - N/A   Overcast
6:29 AM 37.4 °F 33.8 °F 37.4 °F 100% 30.18 in 1.4 mi WSW 4.6 mph - N/A   Overcast
6:35 AM 37.4 °F 34.9 °F 37.4 °F 100% 30.18 in 1.4 mi WSW 3.5 mph - N/A   Mostly Cloudy
6:45 AM 37.4 °F 34.9 °F 37.4 °F 100% 30.18 in 1.3 mi WSW 3.5 mph - N/A   Light Drizzle
6:49 AM 37.4 °F 34.9 °F 37.4 °F 100% 30.18 in 1.2 mi WSW 3.5 mph - N/A   Mostly Cloudy
6:55 AM 37.4 °F 34.9 °F 37.4 °F 100% 30.18 in 1.2 mi West 3.5 mph - N/A   Mostly Cloudy
7:01 AM 39.2 °F 35.9 °F 39.2 °F 100% 30.18 in 1.1 mi West 4.6 mph - N/A   Mostly Cloudy
7:25 AM 37.4 °F 33.8 °F 37.4 °F 100% 30.18 in 1.2 mi WSW 4.6 mph - N/A Rain Light Rain
7:42 AM 39.2 °F 37.0 °F 37.4 °F 93% 30.18 in 1.2 mi SW 3.5 mph - N/A   Mostly Cloudy
7:46 AM 37.4 °F 34.9 °F 37.4 °F 100% 30.18 in 1.2 mi SW 3.5 mph - N/A   Overcast
7:55 AM 37.4 °F 34.9 °F 37.4 °F 100% 30.18 in 1.2 mi SW 3.5 mph - N/A   Overcast
8:00 AM 37.4 °F 34.9 °F 37.4 °F 100% 30.18 in 1.2 mi WSW 3.5 mph - N/A   Overcast
8:04 AM 37.4 °F 34.9 °F 37.4 °F 100% 30.18 in 1.2 mi WSW 3.5 mph - N/A   Overcast
8:25 AM 39.2 °F - 39.2 °F 100% 30.21 in 1.2 mi WSW 2.3 mph - N/A Rain Light Rain
8:55 AM 39.2 °F 37.0 °F 39.2 °F 100% 30.21 in 1.3 mi SW 3.5 mph - N/A Rain Light Rain
9:25 AM 39.2 °F 37.0 °F 39.2 °F 100% 30.21 in 1.7 mi SSW 3.5 mph - N/A   Overcast
9:39 AM 41.0 °F 38.0 °F 41.0 °F 100% 30.21 in 1.8 mi SW 4.6 mph - N/A   Overcast
9:46 AM 41.0 °F 38.0 °F 41.0 °F 100% 30.21 in 1.7 mi SW 4.6 mph - N/A   Overcast
9:55 AM 41.0 °F 37.1 °F 41.0 °F 100% 30.21 in 1.4 mi SW 5.8 mph - N/A   Overcast
10:14 AM 41.0 °F 38.0 °F 41.0 °F 100% 30.21 in 1.3 mi SSW 4.6 mph - N/A Rain Light Rain
10:18 AM 41.0 °F 38.0 °F 41.0 °F 100% 30.21 in 1.4 mi SSW 4.6 mph - N/A   Light Drizzle
10:25 AM 41.0 °F 38.0 °F 39.2 °F 93% 30.21 in 1.4 mi SW 4.6 mph - N/A   Overcast
10:32 AM 39.2 °F 37.0 °F 39.2 °F 100% 30.21 in 1.4 mi WSW 3.5 mph - N/A   Overcast
10:33 AM 41.0 °F 39.0 °F 41.0 °F 100% 30.24 in 1.3 mi West 3.5 mph - N/A   Overcast
10:46 AM 41.0 °F - 41.0 °F 100% 30.24 in 1.2 mi WSW 2.3 mph - N/A   Light Drizzle
10:55 AM 41.0 °F - 41.0 °F 100% 30.24 in 1.3 mi West 2.3 mph - N/A   Overcast
11:13 AM 41.0 °F - 41.0 °F 100% 30.24 in 1.6 mi West 2.3 mph - N/A   Mostly Cloudy
11:25 AM 42.8 °F 41.1 °F 42.8 °F 100% 30.24 in 1.7 mi SW 3.5 mph - N/A   Overcast
11:40 AM 42.8 °F - 42.8 °F 100% 30.24 in - South 2.3 mph - N/A   Overcast
11:41 AM 42.8 °F - 42.8 °F 100% 30.24 in - South 2.3 mph - N/A   Overcast
11:55 AM 42.8 °F - 42.8 °F 100% 30.24 in - SW 2.3 mph - N/A   Mostly Cloudy
12:08 PM 42.8 °F 41.1 °F 42.8 °F 100% 30.24 in - SSW 3.5 mph - N/A   Overcast
12:25 PM 42.8 °F 41.1 °F 42.8 °F 100% 30.24 in 3.1 mi SSW 3.5 mph - N/A   Overcast
12:55 PM 42.8 °F 41.1 °F 42.8 °F 100% 30.24 in 5.6 mi NW 3.5 mph - N/A   Overcast
12:56 PM 44.6 °F 43.1 °F 42.8 °F 93% 30.24 in 6.2 mi NW 3.5 mph - N/A   Mostly Cloudy
1:09 PM 44.6 °F 42.2 °F 41.0 °F 87% 30.21 in 4.3 mi WNW 4.6 mph - N/A   Mostly Cloudy
1:14 PM 44.6 °F 43.1 °F 42.8 °F 93% 30.21 in 5.0 mi West 3.5 mph - N/A   Mostly Cloudy
1:15 PM 44.6 °F 43.1 °F 42.8 °F 93% 30.21 in 5.0 mi WNW 3.5 mph - N/A   Overcast
1:25 PM 44.6 °F 43.1 °F 42.8 °F 93% 30.21 in 5.6 mi West 3.5 mph - N/A   Mostly Cloudy
1:35 PM 44.6 °F 43.1 °F 41.0 °F 87% 30.21 in 6.2 mi West 3.5 mph - N/A   Mostly Cloudy
1:50 PM 44.6 °F 43.1 °F 41.0 °F 87% 30.21 in 6.2 mi WNW 3.5 mph - N/A   Overcast
1:55 PM 44.6 °F 43.1 °F 41.0 °F 87% 30.21 in 6.2 mi WNW 3.5 mph - N/A   Overcast
2:25 PM 46.4 °F 45.2 °F 41.0 °F 81% 30.21 in 6.2 mi WNW 3.5 mph - N/A   Overcast
2:34 PM 46.4 °F 44.3 °F 41.0 °F 81% 30.21 in 6.2 mi WNW 4.6 mph - N/A   Overcast
2:35 PM 46.4 °F 44.3 °F 41.0 °F 81% 30.21 in 6.2 mi WNW 4.6 mph - N/A   Mostly Cloudy
2:43 PM 46.4 °F 44.3 °F 41.0 °F 81% 30.21 in 6.2 mi West 4.6 mph - N/A   Overcast
2:55 PM 44.6 °F 42.2 °F 41.0 °F 87% 30.21 in 6.2 mi West 4.6 mph - N/A   Mostly Cloudy
2:56 PM 44.6 °F 42.2 °F 41.0 °F 87% 30.21 in 6.2 mi WSW 4.6 mph - N/A   Mostly Cloudy
3:12 PM 46.4 °F 44.3 °F 41.0 °F 81% 30.21 in 6.2 mi West 4.6 mph - N/A   Overcast
3:25 PM 46.4 °F 44.3 °F 41.0 °F 81% 30.21 in 6.2 mi West 4.6 mph - N/A   Overcast
3:37 PM 46.4 °F 44.3 °F 41.0 °F 81% 30.21 in 6.2 mi West 4.6 mph - N/A   Mostly Cloudy
3:38 PM 46.4 °F 43.5 °F 41.0 °F 81% 30.21 in 6.2 mi West 5.8 mph - N/A   Mostly Cloudy
3:49 PM 46.4 °F 43.5 °F 41.0 °F 81% 30.21 in 6.2 mi West 5.8 mph - N/A   Mostly Cloudy
3:55 PM 46.4 °F 43.5 °F 41.0 °F 81% 30.21 in 6.2 mi West 5.8 mph - N/A   Overcast
3:56 PM 46.4 °F 44.3 °F 41.0 °F 81% 30.21 in 6.2 mi West 4.6 mph - N/A   Overcast
4:25 PM 44.6 °F 43.1 °F 39.2 °F 81% 30.21 in 6.2 mi WNW 3.5 mph - N/A   Overcast
4:39 PM 44.6 °F - 39.2 °F 81% 30.21 in 6.2 mi NW 2.3 mph - N/A   Overcast
4:46 PM 44.6 °F - 39.2 °F 81% 30.21 in 6.2 mi NW 2.3 mph - N/A   Overcast
4:55 PM 44.6 °F - 41.0 °F 87% 30.21 in 6.2 mi North 2.3 mph - N/A   Mostly Cloudy
4:59 PM 44.6 °F 43.1 °F 41.0 °F 87% 30.21 in 6.2 mi NNE 3.5 mph - N/A   Overcast
5:05 PM 44.6 °F - 41.0 °F 87% 30.21 in 6.2 mi NNE 2.3 mph - N/A   Overcast
5:14 PM 44.6 °F - 41.0 °F 87% 30.21 in 6.2 mi NNE 2.3 mph - N/A   Overcast
5:25 PM 44.6 °F - 41.0 °F 87% 30.21 in 6.2 mi NNE 2.3 mph - N/A   Mostly Cloudy
5:44 PM 42.8 °F - 41.0 °F 93% 30.21 in 5.6 mi NW 1.2 mph - N/A   Overcast
5:55 PM 42.8 °F - 41.0 °F 93% 30.21 in 5.6 mi West 1.2 mph - N/A   Overcast
6:02 PM 42.8 °F - 41.0 °F 93% 30.21 in 4.3 mi WSW 1.2 mph - N/A   Overcast
6:06 PM 41.0 °F - 39.2 °F 93% 30.21 in 5.0 mi SW 1.2 mph - N/A   Overcast
6:19 PM 41.0 °F - 41.0 °F 100% 30.21 in 5.0 mi SE 2.3 mph - N/A   Overcast
6:25 PM 41.0 °F - 41.0 °F 100% 30.21 in 4.3 mi SE 1.2 mph - N/A   Overcast
6:55 PM 41.0 °F - 41.0 °F 100% 30.24 in 3.7 mi Calm Calm - N/A   Overcast
7:25 PM 39.2 °F - 39.2 °F 100% 30.24 in - NNE 1.2 mph - N/A   Overcast
7:29 PM 39.2 °F - 39.2 °F 100% 30.24 in - NNE 2.3 mph - N/A   Overcast
7:49 PM 41.0 °F - 39.2 °F 93% 30.24 in - SE 1.2 mph - N/A   Overcast
7:55 PM 39.2 °F - 39.2 °F 100% 30.24 in - SSE 1.2 mph - N/A   Overcast
8:00 PM 39.2 °F - 39.2 °F 100% 30.24 in - SW 1.2 mph - N/A   Overcast
8:04 PM 39.2 °F - 39.2 °F 100% 30.24 in 2.2 mi West 1.2 mph - N/A   Overcast
8:08 PM 39.2 °F - 39.2 °F 100% 30.24 in 2.5 mi NW 1.2 mph - N/A   Overcast
8:12 PM 39.2 °F - 39.2 °F 100% 30.24 in 3.1 mi NW 1.2 mph - N/A   Overcast
8:16 PM 39.2 °F - 39.2 °F 100% 30.24 in - WNW 1.2 mph - N/A   Mostly Cloudy
8:25 PM 39.2 °F - 39.2 °F 100% 30.24 in - NW 1.2 mph - N/A   Overcast
8:36 PM 39.2 °F - 39.2 °F 100% 30.24 in 2.2 mi WNW 1.2 mph - N/A   Overcast
8:43 PM 39.2 °F - 39.2 °F 100% 30.24 in - WNW 1.2 mph - N/A   Overcast
8:47 PM 39.2 °F - 39.2 °F 100% 30.24 in - WNW 1.2 mph - N/A   Mostly Cloudy
8:55 PM 39.2 °F - 39.2 °F 100% 30.24 in 1.7 mi West 1.2 mph - N/A   Overcast
9:08 PM 39.2 °F - 39.2 °F 100% 30.24 in 1.6 mi NW 1.2 mph - N/A   Overcast
9:12 PM 41.0 °F 39.0 °F 41.0 °F 100% 30.24 in 1.6 mi North 3.5 mph - N/A   Mostly Cloudy
9:16 PM 41.0 °F 39.0 °F 41.0 °F 100% 30.24 in - NNE 3.5 mph - N/A   Overcast
9:25 PM 41.0 °F 39.0 °F 41.0 °F 100% 30.24 in 3.7 mi NE 3.5 mph - N/A   Overcast
9:31 PM 39.2 °F 37.0 °F 39.2 °F 100% 30.24 in - ENE 3.5 mph - N/A   Mostly Cloudy
9:45 PM 39.2 °F 35.9 °F 39.2 °F 100% 30.24 in - East 4.6 mph - N/A   Overcast
9:46 PM 39.2 °F 35.9 °F 39.2 °F 100% 30.24 in - ENE 4.6 mph - N/A   Overcast
9:55 PM 39.2 °F 35.9 °F 39.2 °F 100% 30.24 in 2.5 mi East 4.6 mph - N/A   Overcast
9:59 PM 39.2 °F 37.0 °F 39.2 °F 100% 30.24 in 3.1 mi East 3.5 mph - N/A   Overcast
10:12 PM 39.2 °F 37.0 °F 39.2 °F 100% 30.24 in 3.7 mi East 3.5 mph - N/A   Overcast
10:19 PM 39.2 °F 35.9 °F 39.2 °F 100% 30.24 in - ENE 4.6 mph - N/A   Overcast
10:25 PM 39.2 °F 37.0 °F 39.2 °F 100% 30.24 in - ENE 3.5 mph - N/A   Overcast
10:28 PM 39.2 °F 37.0 °F 39.2 °F 100% 30.24 in - NE 3.5 mph - N/A   Overcast
10:33 PM 39.2 °F 37.0 °F 39.2 °F 100% 30.24 in - NE 3.5 mph - N/A   Overcast
10:40 PM 39.2 °F 37.0 °F 39.2 °F 100% 30.24 in 3.1 mi ENE 3.5 mph - N/A   Overcast
10:43 PM 39.2 °F - 37.4 °F 93% 30.24 in - ENE 2.3 mph - N/A   Overcast
10:45 PM 39.2 °F - 37.4 °F 93% 30.24 in - ENE 2.3 mph - N/A   Overcast
10:55 PM 39.2 °F - 37.4 °F 93% 30.24 in 1.9 mi NE 1.2 mph - N/A   Overcast
11:05 PM 39.2 °F - 37.4 °F 93% 30.24 in - NE 2.3 mph - N/A   Overcast
11:18 PM 37.4 °F - 37.4 °F 100% 30.24 in - NE 2.3 mph - N/A   Overcast
11:25 PM 37.4 °F - 37.4 °F 100% 30.24 in - ENE 2.3 mph - N/A   Overcast
11:34 PM 37.4 °F 34.9 °F 37.4 °F 100% 30.24 in - ENE 3.5 mph - N/A   Overcast
11:35 PM 37.4 °F - 37.4 °F 100% 30.24 in - ENE 2.3 mph - N/A   Overcast
11:55 PM 37.4 °F 34.9 °F 37.4 °F 100% 30.24 in 1.7 mi ENE 3.5 mph - N/A   Overcast